Starlink 30454

operational
NORAD ID: 57915 Int'l Des: 2023-147 Owner: SPXS Country: US Constellation: starlink
LEOCIRCULAR

关于 Starlink 30454

正在加载描述...

实时位置

正在加载3D地球...

即将过境

高度历史

Altitude vs Time

uPlot chart will show altitude changes over time

两行轨道根数

1 57915U 23147C 25353.51319858 .00002561 00000-0 20453-3 0 9993
2 57915 43.0039 42.0303 0001377 269.0402 91.0283 15.02546036124520
Epoch: Dec 19, 2025 • Age: 19 hours

当前状态

高度 558.6 km
速度 7.59 km/s
星下点 18.09°N, 144.82°W
发射日期 Sep 24, 2023
运行时间 2.2 years
类型 internet

技术详情

分类 Payload
质量 730.00 kg
干质量 700.00 kg
总质量 730.00 kg
长度 0.30 m
直径 4.10 m
跨度 29.00 m
形状 Box + pan
制造商 SPXS
平台类型 Starlink V2M
阶段状态 In Orbit
所有者/国家 SPXS/US

大型星座

Loading constellations...